CXA715 ZGHA-ZLXY

Flight info

Callsign CXA715
Flight time 1h 25m
Altitude 30100
Route OLT8X OLTUS DCT LLC W138 DYG W139 ENH W102 SHX
Aircraft B38M/M-SDE1FGHILORVWXY/HB1

Departure

Time 2026-04-22 04:40
Airport Changsha Huanghua International Airport (ZGHA)

Arrival

Time 2026-04-22 06:05
Airport Xi'an Xianyang International Airport (ZLXY)
Time Latitude Longitude Altitude Speed Heading
2026-04-22 04:21 28.19000 113.21593 216 ft 0 kts 269°
2026-04-22 04:31 28.19000 113.21602 220 ft 2 kts 269°
2026-04-22 04:31 28.19000 113.21620 216 ft 2 kts 269°
2026-04-22 04:31 28.19000 113.21639 216 ft 2 kts 270°
2026-04-22 04:32 28.19000 113.21657 216 ft 2 kts 257°
2026-04-22 04:32 28.19010 113.21670 225 ft 2 kts 188°
2026-04-22 04:32 28.19020 113.21670 217 ft 0 kts 175°
2026-04-22 04:35 28.19019 113.21671 221 ft 1 kts 175°
2026-04-22 04:35 28.19001 113.21672 216 ft 6 kts 176°
2026-04-22 04:35 28.18929 113.21677 216 ft 12 kts 173°
2026-04-22 04:36 28.18884 113.21745 216 ft 11 kts 104°
2026-04-22 04:36 28.18827 113.21789 216 ft 13 kts 163°
2026-04-22 04:36 28.18703 113.21802 222 ft 23 kts 177°
2026-04-22 04:36 28.18529 113.21813 219 ft 26 kts 176°
2026-04-22 04:37 28.18354 113.21824 216 ft 25 kts 177°
2026-04-22 04:37 28.18176 113.21835 216 ft 26 kts 176°
2026-04-22 04:37 28.17991 113.21847 216 ft 27 kts 177°
2026-04-22 04:37 28.17834 113.21856 219 ft 12 kts 177°
2026-04-22 04:38 28.17753 113.21884 221 ft 13 kts 127°
2026-04-22 04:38 28.17744 113.21982 219 ft 13 kts 77°
2026-04-22 04:38 28.17807 113.22051 219 ft 14 kts 359°
2026-04-22 04:38 28.17904 113.22041 219 ft 14 kts 354°
2026-04-22 04:39 28.18011 113.22033 224 ft 19 kts 356°
2026-04-22 04:39 28.18223 113.22020 218 ft 59 kts 356°
2026-04-22 04:39 28.18874 113.21979 222 ft 125 kts 357°
2026-04-22 04:39 28.19913 113.21914 352 ft 165 kts 356°
2026-04-22 04:40 28.21077 113.21839 1105 ft 170 kts 355°
2026-04-22 04:40 28.22245 113.21769 1869 ft 165 kts 356°
2026-04-22 04:40 28.23397 113.21700 2425 ft 169 kts 356°
2026-04-22 04:40 28.24621 113.21625 2773 ft 187 kts 357°
2026-04-22 04:41 28.25996 113.21541 3219 ft 203 kts 358°
2026-04-22 04:41 28.27393 113.21455 4081 ft 201 kts 357°
2026-04-22 04:41 28.28780 113.21369 5079 ft 205 kts 356°
2026-04-22 04:41 28.30219 113.21279 5823 ft 210 kts 355°
2026-04-22 04:42 28.31725 113.21184 6302 ft 224 kts 354°
2026-04-22 04:42 28.33314 113.21085 6861 ft 229 kts 354°
2026-04-22 04:42 28.34918 113.20985 7509 ft 233 kts 353°
2026-04-22 04:42 28.36484 113.20591 8056 ft 230 kts 327°
2026-04-22 04:43 28.37634 113.19416 8730 ft 221 kts 299°
2026-04-22 04:43 28.38152 113.17776 9360 ft 218 kts 274°
2026-04-22 04:43 28.38173 113.16084 10024 ft 217 kts 269°
2026-04-22 04:43 28.38146 113.14363 10624 ft 218 kts 268°
2026-04-22 04:44 28.38094 113.12636 11205 ft 220 kts 265°
2026-04-22 04:44 28.37635 113.10936 11576 ft 236 kts 239°
2026-04-22 04:44 28.36371 113.09647 12000 ft 256 kts 210°
2026-04-22 04:44 28.34572 113.09216 12552 ft 276 kts 187°
2026-04-22 04:45 28.32635 113.09133 13195 ft 279 kts 190°
2026-04-22 04:45 28.30645 113.08989 13088 ft 310 kts 190°
2026-04-22 04:45 28.28317 113.08811 12251 ft 346 kts 189°
2026-04-22 04:45 28.25894 113.08640 11864 ft 355 kts 189°
2026-04-22 04:46 28.23459 113.08475 12490 ft 356 kts 189°
2026-04-22 04:46 28.20970 113.08271 13024 ft 360 kts 191°
2026-04-22 04:46 28.18593 113.07548 13656 ft 352 kts 210°
2026-04-22 04:46 28.16613 113.05965 14190 ft 347 kts 229°
2026-04-22 04:47 28.15233 113.03738 14751 ft 346 kts 246°
2026-04-22 04:47 28.14500 113.01147 15323 ft 347 kts 258°
2026-04-22 04:47 28.14029 112.98452 15886 ft 350 kts 259°
2026-04-22 04:47 28.13657 112.95720 16461 ft 352 kts 266°
2026-04-22 04:48 28.13730 112.92928 17011 ft 355 kts 271°
2026-04-22 04:48 28.13857 112.90120 17513 ft 358 kts 271°
2026-04-22 04:48 28.14000 112.87293 18043 ft 360 kts 271°
2026-04-22 04:48 28.14153 112.84483 18508 ft 363 kts 271°
2026-04-22 04:49 28.14317 112.81588 18935 ft 365 kts 271°
2026-04-22 04:49 28.14480 112.78750 19373 ft 366 kts 271°
2026-04-22 04:49 28.14646 112.75865 19789 ft 368 kts 272°
2026-04-22 04:49 28.14813 112.72961 20205 ft 370 kts 272°
2026-04-22 04:50 28.14979 112.70047 20621 ft 371 kts 271°
2026-04-22 04:50 28.15146 112.67122 21025 ft 373 kts 272°
2026-04-22 04:50 28.15314 112.64177 21405 ft 375 kts 271°
2026-04-22 04:50 28.15481 112.61218 21805 ft 377 kts 272°
2026-04-22 04:51 28.15650 112.58241 22203 ft 379 kts 272°
2026-04-22 04:51 28.15817 112.55251 22603 ft 380 kts 272°
2026-04-22 04:51 28.15985 112.52251 22963 ft 383 kts 272°
2026-04-22 04:51 28.16154 112.49233 23327 ft 384 kts 271°
2026-04-22 04:52 28.16322 112.46197 23675 ft 386 kts 272°
2026-04-22 04:52 28.16489 112.43193 23967 ft 388 kts 271°
2026-04-22 04:52 28.16657 112.40131 24265 ft 390 kts 271°
2026-04-22 04:52 28.16826 112.37062 24552 ft 391 kts 271°
2026-04-22 04:53 28.16901 112.33979 24829 ft 392 kts 264°
2026-04-22 04:53 28.16280 112.30981 25104 ft 393 kts 249°
2026-04-22 04:53 28.14885 112.28288 25381 ft 399 kts 234°
2026-04-22 04:53 28.12915 112.26040 25709 ft 403 kts 228°
2026-04-22 04:54 28.11154 112.23596 25937 ft 399 kts 242°
2026-04-22 04:54 28.10050 112.20753 26141 ft 399 kts 255°
2026-04-22 04:54 28.09602 112.17655 26398 ft 401 kts 267°
2026-04-22 04:54 28.09822 112.14496 26674 ft 405 kts 279°
2026-04-22 04:55 28.10684 112.11438 26968 ft 411 kts 290°
2026-04-22 04:55 28.12055 112.08573 27256 ft 419 kts 300°
2026-04-22 04:55 28.14009 112.06082 27608 ft 427 kts 309°
2026-04-22 04:55 28.16015 112.03615 27864 ft 425 kts 304°
2026-04-22 04:56 28.17851 112.00987 28039 ft 426 kts 301°
2026-04-22 04:56 28.19592 111.98272 28344 ft 425 kts 300°
2026-04-22 04:56 28.21268 111.95508 28554 ft 427 kts 298°
2026-04-22 04:56 28.22921 111.92705 28790 ft 428 kts 298°
2026-04-22 04:57 28.24566 111.89876 29018 ft 430 kts 298°
2026-04-22 04:57 28.26181 111.87074 29269 ft 431 kts 298°
2026-04-22 04:57 28.27819 111.84220 29484 ft 433 kts 298°
2026-04-22 04:57 28.29463 111.81351 29733 ft 434 kts 298°
2026-04-22 04:58 28.31109 111.78475 30039 ft 433 kts 298°
2026-04-22 04:58 28.32747 111.75611 30188 ft 432 kts 297°
2026-04-22 04:58 28.34376 111.72760 30165 ft 431 kts 298°
2026-04-22 04:59 28.37635 111.67053 30178 ft 430 kts 298°
2026-04-22 04:59 28.40892 111.61341 30179 ft 430 kts 298°
2026-04-22 05:00 28.43592 111.56600 30181 ft 430 kts 298°
2026-04-22 05:00 28.47355 111.49982 30187 ft 429 kts 297°
2026-04-22 05:01 28.50592 111.44283 30185 ft 429 kts 297°
2026-04-22 05:01 28.53825 111.38583 30192 ft 429 kts 297°
2026-04-22 05:02 28.56510 111.33843 30191 ft 428 kts 297°
2026-04-22 05:02 28.59734 111.28145 30196 ft 427 kts 297°
2026-04-22 05:03 28.62947 111.22457 30188 ft 427 kts 297°
2026-04-22 05:03 28.66168 111.16767 30192 ft 427 kts 298°
2026-04-22 05:04 28.69409 111.11094 30191 ft 427 kts 298°
2026-04-22 05:04 28.72642 111.05420 30190 ft 427 kts 298°
2026-04-22 05:05 28.75874 110.99742 30172 ft 427 kts 297°
2026-04-22 05:05 28.79085 110.94094 30190 ft 427 kts 297°
2026-04-22 05:06 28.82308 110.88416 30190 ft 427 kts 297°
2026-04-22 05:06 28.85530 110.82731 30195 ft 427 kts 297°
2026-04-22 05:07 28.88750 110.77043 30190 ft 427 kts 297°
2026-04-22 05:07 28.91971 110.71346 30186 ft 428 kts 297°
2026-04-22 05:08 28.95196 110.65633 30195 ft 428 kts 297°
2026-04-22 05:08 28.98393 110.59963 30184 ft 427 kts 297°
2026-04-22 05:09 29.01613 110.54244 30160 ft 428 kts 297°
2026-04-22 05:09 29.04833 110.48518 30171 ft 428 kts 297°
2026-04-22 05:10 29.08073 110.42783 30165 ft 430 kts 300°
2026-04-22 05:10 29.10143 110.40264 30175 ft 442 kts 315°
2026-04-22 05:10 29.12752 110.38331 30172 ft 450 kts 322°
2026-04-22 05:11 29.18142 110.34675 30165 ft 451 kts 323°
2026-04-22 05:11 29.23531 110.31082 30167 ft 451 kts 323°
2026-04-22 05:12 29.28968 110.27468 30157 ft 451 kts 323°
2026-04-22 05:12 29.34401 110.23852 30135 ft 451 kts 323°
2026-04-22 05:13 29.39821 110.20238 30147 ft 450 kts 323°
2026-04-22 05:13 29.45217 110.16638 30141 ft 450 kts 323°
2026-04-22 05:14 29.50634 110.13023 30149 ft 450 kts 323°
2026-04-22 05:14 29.56056 110.09406 30141 ft 450 kts 323°
2026-04-22 05:15 29.61471 110.05787 30126 ft 450 kts 323°
2026-04-22 05:15 29.66895 110.02159 30131 ft 451 kts 323°
2026-04-22 05:16 29.72325 109.98521 30110 ft 451 kts 323°
2026-04-22 05:16 29.77714 109.94908 30120 ft 450 kts 323°
2026-04-22 05:17 29.83119 109.91277 30120 ft 450 kts 323°
2026-04-22 05:17 29.88532 109.87638 30125 ft 449 kts 323°
2026-04-22 05:18 29.96601 109.82204 30106 ft 449 kts 323°
2026-04-22 05:18 30.02000 109.78562 30105 ft 449 kts 323°
2026-04-22 05:19 30.07401 109.74914 30095 ft 449 kts 323°
2026-04-22 05:19 30.12786 109.71272 30100 ft 448 kts 323°
2026-04-22 05:20 30.18167 109.67629 30102 ft 446 kts 323°
2026-04-22 05:20 30.23479 109.64028 30095 ft 445 kts 323°
2026-04-22 05:21 30.29067 109.60896 30100 ft 458 kts 340°
2026-04-22 05:21 30.32281 109.60482 30104 ft 473 kts 354°
2026-04-22 05:21 30.35597 109.60694 30103 ft 476 kts 355°
2026-04-22 05:22 30.42210 109.61212 30115 ft 478 kts 356°
2026-04-22 05:22 30.48844 109.61810 30103 ft 477 kts 356°
2026-04-22 05:23 30.55432 109.62406 30100 ft 478 kts 356°
2026-04-22 05:23 30.62065 109.63007 30105 ft 477 kts 356°
2026-04-22 05:24 30.68701 109.63608 30102 ft 478 kts 357°
2026-04-22 05:24 30.75343 109.64212 30107 ft 479 kts 357°
2026-04-22 05:25 30.81996 109.64817 30113 ft 480 kts 357°
2026-04-22 05:25 30.88663 109.65425 30110 ft 481 kts 357°
2026-04-22 05:26 30.95337 109.66035 30107 ft 482 kts 357°
2026-04-22 05:26 31.01983 109.66643 30100 ft 482 kts 358°
2026-04-22 05:27 31.08691 109.67257 30105 ft 483 kts 358°
2026-04-22 05:27 31.15369 109.67870 30086 ft 484 kts 358°
2026-04-22 05:28 31.22108 109.68488 30104 ft 485 kts 358°
2026-04-22 05:28 31.28837 109.69107 30117 ft 485 kts 358°
2026-04-22 05:29 31.35520 109.69722 30118 ft 485 kts 358°
2026-04-22 05:29 31.42260 109.70344 30117 ft 485 kts 358°
2026-04-22 05:30 31.48980 109.70965 30126 ft 484 kts 358°
2026-04-22 05:30 31.55713 109.71588 30130 ft 484 kts 358°
2026-04-22 05:31 31.62396 109.72207 30135 ft 485 kts 359°
2026-04-22 05:31 31.69114 109.72830 30126 ft 485 kts 359°
2026-04-22 05:32 31.75844 109.73456 30141 ft 485 kts 359°
2026-04-22 05:32 31.82597 109.74084 30154 ft 486 kts 359°
2026-04-22 05:33 31.89337 109.74711 30142 ft 487 kts 359°
2026-04-22 05:33 31.96105 109.75343 30147 ft 488 kts 359°
2026-04-22 05:34 32.02889 109.75977 30148 ft 490 kts 359°
2026-04-22 05:34 32.09654 109.76611 30139 ft 492 kts 360°
2026-04-22 05:35 32.16484 109.77250 30143 ft 493 kts 360°
2026-04-22 05:35 32.23343 109.77892 30141 ft 494 kts 360°
2026-04-22 05:36 32.30206 109.78533 30151 ft 496 kts
2026-04-22 05:36 32.37091 109.79176 30151 ft 496 kts
2026-04-22 05:37 32.43986 109.79821 30152 ft 498 kts
2026-04-22 05:37 32.50892 109.80469 30143 ft 498 kts
2026-04-22 05:38 32.57804 109.81117 30163 ft 499 kts
2026-04-22 05:38 32.64733 109.81768 30155 ft 499 kts
2026-04-22 05:39 32.71667 109.82421 30156 ft 499 kts
2026-04-22 05:39 32.78543 109.83070 30149 ft 499 kts
2026-04-22 05:40 32.85466 109.83724 30140 ft 499 kts
2026-04-22 05:40 32.92388 109.84379 30144 ft 499 kts
2026-04-22 05:41 32.99315 109.85036 30142 ft 498 kts 360°
2026-04-22 05:41 33.06222 109.85691 30134 ft 498 kts 360°
2026-04-22 05:42 33.12418 109.86280 30147 ft 498 kts 360°
2026-04-22 05:42 33.19314 109.86936 30117 ft 497 kts 359°
2026-04-22 05:43 33.26204 109.87593 30131 ft 497 kts 359°
2026-04-22 05:43 33.33099 109.88251 30136 ft 496 kts 359°
2026-04-22 05:44 33.39930 109.88905 30141 ft 495 kts 359°
2026-04-22 05:44 33.46802 109.89563 30136 ft 494 kts 359°
2026-04-22 05:45 33.53651 109.90222 30138 ft 493 kts 359°
2026-04-22 05:45 33.57075 109.90550 29811 ft 492 kts 358°
2026-04-22 05:45 33.60413 109.90872 29490 ft 479 kts 358°
2026-04-22 05:46 33.63702 109.91189 29258 ft 472 kts 358°
2026-04-22 05:46 33.66990 109.91504 28096 ft 479 kts 359°
2026-04-22 05:46 33.70341 109.91827 27162 ft 484 kts 359°
2026-04-22 05:46 33.73679 109.92149 26705 ft 476 kts 359°
2026-04-22 05:47 33.76971 109.92467 26062 ft 473 kts 359°
2026-04-22 05:47 33.80244 109.92783 25425 ft 470 kts 359°
2026-04-22 05:47 33.83477 109.92837 24648 ft 461 kts 348°
2026-04-22 05:47 33.86546 109.91925 24030 ft 448 kts 334°
2026-04-22 05:48 33.89250 109.90219 23481 ft 434 kts 321°
2026-04-22 05:48 33.90794 109.88709 23040 ft 428 kts 314°
2026-04-22 05:48 33.93631 109.85454 22198 ft 421 kts 312°
2026-04-22 05:48 33.95669 109.82951 21600 ft 416 kts 311°
2026-04-22 05:49 33.97657 109.80434 21033 ft 412 kts 310°
2026-04-22 05:49 33.98980 109.78739 20653 ft 409 kts 310°
2026-04-22 05:49 34.00913 109.76239 20083 ft 406 kts 310°
2026-04-22 05:49 34.02820 109.73757 19519 ft 403 kts 310°
2026-04-22 05:50 34.05336 109.70472 18760 ft 401 kts 311°
2026-04-22 05:50 34.06586 109.68837 18398 ft 399 kts 311°
2026-04-22 05:50 34.08467 109.66375 17754 ft 400 kts 310°
2026-04-22 05:50 34.10378 109.63865 17106 ft 410 kts 311°
2026-04-22 05:51 34.12298 109.61348 16530 ft 405 kts 311°
2026-04-22 05:51 34.14194 109.58858 15988 ft 401 kts 312°
2026-04-22 05:51 34.16069 109.56399 15442 ft 392 kts 313°
2026-04-22 05:51 34.17897 109.54008 14898 ft 385 kts 313°
2026-04-22 05:52 34.19709 109.51628 14339 ft 384 kts 314°
2026-04-22 05:52 34.21508 109.49261 13774 ft 382 kts 314°
2026-04-22 05:52 34.23300 109.46903 13162 ft 380 kts 314°
2026-04-22 05:52 34.25079 109.44560 12600 ft 377 kts 314°
2026-04-22 05:53 34.26823 109.42260 12046 ft 374 kts 314°
2026-04-22 05:53 34.28574 109.39953 11668 ft 366 kts 315°
2026-04-22 05:53 34.30235 109.37758 11454 ft 342 kts 314°
2026-04-22 05:53 34.31796 109.35696 11259 ft 321 kts 315°
2026-04-22 05:54 34.33261 109.33763 11066 ft 302 kts 315°
2026-04-22 05:54 34.34635 109.31946 10908 ft 284 kts 315°
2026-04-22 05:54 34.35940 109.30219 10737 ft 274 kts 315°
2026-04-22 05:54 34.37123 109.28651 10576 ft 271 kts 315°
2026-04-22 05:55 34.38229 109.27189 10491 ft 275 kts 315°
2026-04-22 05:55 34.39533 109.25464 10284 ft 278 kts 315°
2026-04-22 05:55 34.40833 109.23743 10044 ft 276 kts 316°
2026-04-22 05:55 34.42124 109.22031 9699 ft 273 kts 315°
2026-04-22 05:56 34.43388 109.20354 9291 ft 267 kts 316°
2026-04-22 05:56 34.44622 109.18714 8952 ft 259 kts 316°
2026-04-22 05:56 34.45797 109.17155 8694 ft 248 kts 315°
2026-04-22 05:56 34.46950 109.15623 8417 ft 246 kts 315°
2026-04-22 05:57 34.48108 109.14093 8089 ft 248 kts 315°
2026-04-22 05:57 34.49267 109.12551 7791 ft 243 kts 316°
2026-04-22 05:57 34.50390 109.11060 7469 ft 236 kts 315°
2026-04-22 05:57 34.51484 109.09605 7200 ft 230 kts 315°
2026-04-22 05:58 34.52552 109.08181 6903 ft 226 kts 316°
2026-04-22 05:58 34.53605 109.06781 6662 ft 226 kts 315°
2026-04-22 05:58 34.54675 109.05360 6330 ft 228 kts 315°
2026-04-22 05:58 34.55743 109.03941 6066 ft 224 kts 315°
2026-04-22 05:59 34.56766 109.02570 5871 ft 215 kts 315°
2026-04-22 05:59 34.57755 109.01235 5632 ft 216 kts 308°
2026-04-22 05:59 34.58265 108.99509 5292 ft 222 kts 272°
2026-04-22 05:59 34.57915 108.97785 5408 ft 204 kts 249°
2026-04-22 06:00 34.57216 108.96290 5197 ft 203 kts 237°
2026-04-22 06:00 34.56378 108.94938 5057 ft 199 kts 233°
2026-04-22 06:00 34.55487 108.93646 4822 ft 199 kts 231°
2026-04-22 06:00 34.54564 108.92372 4582 ft 203 kts 231°
2026-04-22 06:01 34.53634 108.91081 4344 ft 204 kts 229°
2026-04-22 06:01 34.52679 108.89760 4040 ft 209 kts 230°
2026-04-22 06:01 34.51730 108.88439 3707 ft 199 kts 231°
2026-04-22 06:01 34.50864 108.87238 3564 ft 181 kts 230°
2026-04-22 06:02 34.50100 108.86168 3444 ft 153 kts 231°
2026-04-22 06:02 34.49400 108.85210 3207 ft 152 kts 229°
2026-04-22 06:02 34.48715 108.84275 2916 ft 146 kts 231°
2026-04-22 06:02 34.48042 108.83335 2666 ft 148 kts 232°
2026-04-22 06:03 34.47372 108.82402 2435 ft 147 kts 231°
2026-04-22 06:03 34.46700 108.81468 2194 ft 147 kts 231°
2026-04-22 06:03 34.46027 108.80532 1980 ft 149 kts 230°
2026-04-22 06:03 34.45343 108.79585 1773 ft 149 kts 230°
2026-04-22 06:04 34.44689 108.78673 1600 ft 149 kts 230°
2026-04-22 06:04 34.43999 108.77708 1541 ft 141 kts 230°
2026-04-22 06:04 34.43499 108.77026 1537 ft 77 kts 229°
2026-04-22 06:04 34.43214 108.76650 1541 ft 56 kts 229°
2026-04-22 06:05 34.43017 108.76357 1541 ft 25 kts 238°
2026-04-22 06:05 34.42950 108.76158 1536 ft 27 kts 255°
2026-04-22 06:05 34.43007 108.75966 1525 ft 19 kts 334°
2026-04-22 06:05 34.43096 108.75896 1523 ft 16 kts 319°
2026-04-22 06:06 34.43166 108.75840 1525 ft 10 kts 356°
2026-04-22 06:06 34.43243 108.75849 1524 ft 12 kts
2026-04-22 06:06 34.43270 108.75853 1521 ft 1 kts
2026-04-22 06:06 34.43271 108.75853 1521 ft 0 kts